Home > Weather > Bloemfontein > Past weeks

Flag for South Africa Weather for the Past 2 Weeks in Bloemfontein, South Africa

Now
88 °F

Scattered clouds.


Feels Like: 84 °F
Forecast: 64 / 89 °F
Wind: 8 mph from North

Location: Bloemfontein Airport

Current Time: Feb 8, 2016 at 3:40:16 PM

Latest Report: Feb 8, 2016 at 3:00 PM


Visibility: N/A

Pressure: 30.07 "Hg (25.70 "Hg at 1397m altitude)

Humidity: 21%

Dew point: 43 °F

Location of BloemfonteinLocation

Historic Weather in Bloemfontein — Graph

°F

Bloemfontein Temperature Yesterday

Maximum temperature yesterday: 93 °F (at 2:00 PM)
Minimum temperature yesterday: 61 °F (at 6:00 AM)
Average temperature yesterday: 78 °F

High & Low Weather Summary for the Past Weeks

 TemperatureHumidityPressure
High95 °F (Jan 30, 5:00 PM)94% (Jan 25, 1:00 AM)30.33 "Hg (Jan 25, 1:00 AM)
Low55 °F (Feb 5, 6:00 AM)7% (Feb 7, 5:00 PM)29.92 "Hg (Feb 3, 5:00 PM)
Average76 °F45%30.10 "Hg
* Reported Jan 24 2:00 PM — Feb 8 2:00 PM, Bloemfontein, Weather by CustomWeather, © 2016

Note: Actual official high and low records may vary slightly from our data, if they occured in-between our weather recording intervals... More about our weather records

Advertising

Bloemfontein Weather History for the Previous 24 Hours

 ConditionsComfort  
Time TempWeatherWind HumidityBarometerVisibility
2:00 PM
Mon, Feb 8
88 °FPassing clouds.5 mph24%30.09 "HgN/A
1:00 PM86 °FPassing clouds.6 mph27%30.12 "HgN/A
12:00 PM82 °FPassing clouds.7 mph30%30.15 "HgN/A
11:00 AM82 °FSunny.6 mph32%30.18 "Hg10 mi
10:00 AM77 °FPassing clouds.12 mph44%30.18 "HgN/A
9:00 AM72 °FSunny.12 mph53%30.18 "Hg10 mi
8:00 AM68 °FSunny.12 mph60%30.18 "Hg10 mi
7:00 AM66 °FPassing clouds.7 mph60%30.15 "HgN/A
6:00 AM64 °FSunny.10 mph60%30.12 "Hg10 mi
5:00 AM63 °FMild.5 mph64%30.12 "HgN/A
4:00 AM63 °FMild.2 mph59%30.12 "HgN/A
3:00 AM66 °FMild.6 mph56%30.12 "HgN/A
2:00 AM70 °FMild.8 mph46%30.09 "HgN/A
1:00 AM68 °FMild.9 mph40%30.09 "HgN/A
12:00 AM70 °FMild.5 mph38%30.09 "HgN/A
11:47 PM
Sun, Feb 7
72 °FMild.7 mph33%30.09 "HgN/A
11:03 PM73 °FMild.12 mph29%30.09 "HgN/A
10:00 PM77 °FPleasantly warm.9 mph21%30.09 "HgN/A
9:00 PM79 °FPleasantly warm.10 mph18%30.07 "HgN/A
8:00 PM81 °FClear.7 mph14%30.04 "Hg10 mi
7:00 PM88 °FClear.12 mph9%30.01 "Hg10 mi
6:00 PM91 °FSunny.12 mph8%30.01 "Hg10 mi
5:00 PM93 °FSunny.15 mph7%30.01 "Hg10 mi
4:00 PM93 °FPassing clouds.15 mph9%30.01 "HgN/A
3:00 PM91 °FPassing clouds.13 mph8%30.01 "HgN/A
Weather by CustomWeather, © 2016

See weather overviewHow to use our weather pages